Overview Statistics Trail Chart Weather Telemetry Raw packets
 

This is the latest recevied weather packets stored in our database for station/object BG5HLN-13. If no packets are shown the sender has not sent any weather packets the latest 10 day(s).

<< 19 20 21 22 23 24 25 >>
Time Temp. Humidity Pressure Rain* Wind** Luminosity Snow
1788315406 31.11° C 83% 1007.1 hPa 0.76 mm - - -
1788314806 31.67° C 83% 1007.2 hPa 1.27 mm - - -
1788314206 31.67° C 83% 1006.9 hPa 1.27 mm - - -
1788313606 31.67° C 83% 1006.9 hPa 2.54 mm - - -
1788313006 31.67° C 83% 1006.8 hPa 2.54 mm - - -
1788312406 31.67° C 84% 1007 hPa 2.29 mm - - -
1788311807 31.67° C 84% 1007 hPa 2.29 mm - - -
1788311205 31.67° C 84% 1007.1 hPa 2.29 mm - - -
1788310606 31.67° C 85% 1007 hPa 1.78 mm - - -
1788310006 31.11° C 86% 1007 hPa 0.51 mm - - -
1788309406 31.11° C 87% 1007 hPa 0.51 mm - - -
1788308806 30.56° C 87% 1006.9 hPa 0.25 mm - - -
1788308206 30.56° C 88% 1007.1 hPa 0.25 mm - - -
1788307627 30.56° C 88% 1007.2 hPa 0 mm - - -
1788307005 30° C 89% 1007.2 hPa 0 mm - - -
1788306406 30° C 89% 1007.3 hPa 0 mm - - -
1788305806 30° C 89% 1007.3 hPa 0 mm - - -
1788305205 30° C 89% 1007.2 hPa 0 mm - - -
1788304606 30° C 89% 1007 hPa 0 mm - - -
1788304006 30° C 89% 1006.7 hPa 0 mm - - -
1788303405 30° C 89% 1006.5 hPa 0 mm - - -
1788302805 30° C 90% 1006.6 hPa 0 mm - - -
1788302206 30° C 90% 1006.6 hPa 0 mm - - -
1788301605 30° C 90% 1006.7 hPa 0 mm - - -
1788301005 30° C 90% 1006.7 hPa 0 mm - - -

* Rain latest hour (hover to see other rain measurements)
** Current wind speed in m/s (hover to see current wind gust speed)